#timestamp,LO_Frequency,Hit,StdDev 
1596114015.6,286046997.6,N
1596114035.4,286046996.7,N
1596114055.3,286046997.7,N
1596114075.1,286046997.4,N
1596114095.9,286046997.7,N
1596114115.7,286046997.4,N
1596114135.5,286046997.0,Y
1596114155.4,286047000.5,P
1596114175.2,286046998.1,N
1596114195.1,286047000.7,N
1596114196.0,286047000.7,N
1596114215.8,286046998.8,N
1596114235.6,286046998.7,N
1596114255.5,286046998.2,N
1596114275.3,286046998.7,N
1596114295.1,286046998.9,N
1596114315.9,286046998.6,N
1596114335.7,286046999.2,N
1596114355.6,286046998.4,N
1596114375.4,286046998.6,N
1596114395.2,286046998.5,N
1596114415.1,286046998.3,N
1596114416.0,286046998.3,N
1596114435.8,286046998.4,N
1596114455.6,286046998.9,N
1596114475.5,286046998.4,N
1596114495.3,286046998.7,N
1596114515.2,286046998.6,N
1596114535.9,286046999.3,N
1596114555.7,286046996.5,Y
1596114575.6,286046998.8,P
1596114595.4,286046998.7,P
1596114615.2,286046998.4,P
1596114635.1,286046999.4,Y
1596114636.0,286046999.4,P
1596114655.8,286047000.5,N
1596114675.7,286047000.3,N
1596114695.5,286047000.2,N
1596114715.3,286046999.7,N
1596114735.2,286047000.3,N
1596114755.0,286047000.9,N
1596114755.9,286047000.9,N
1596114775.8,286046998.1,N
1596114795.6,286046998.6,N
1596114815.4,286046998.3,N
1596114835.3,286046998.8,N
1596114855.1,286046998.3,N
1596114875.8,286046998.1,N
1596114895.7,286046998.8,N
1596114915.5,286046999.6,N
1596114935.4,286046999.1,N
1596114955.2,286046996.6,Y
1596114975.0,286046996.5,P
1596114975.9,286046996.5,N
1596114995.8,286046999.0,N
1596115015.6,286046998.7,N
1596115035.4,286046999.0,N
1596115055.3,286046999.5,N
1596115075.1,286046999.2,N
1596115095.9,286046999.5,N
1596115115.7,286046999.6,N
1596115135.5,286046999.4,N
1596115155.4,286046999.4,N
1596115175.2,286046999.6,N
1596115195.0,286046997.0,N
1596115195.9,286046997.0,N
1596115215.8,286046999.4,N
1596115235.6,286046999.6,N
1596115255.5,286046997.7,N
1596115275.3,286046997.7,N
1596115295.1,286046999.1,N
1596115315.9,286046996.9,N
1596115335.7,286046996.7,N
1596115355.5,286046996.5,Y
1596115375.4,286046998.1,P
1596115395.2,286046999.9,N
1596115415.1,286046996.6,P
1596115416.0,286046996.6,N
1596115435.8,286046996.7,N
1596115455.6,286046997.1,N
1596115475.5,286046997.0,N
1596115495.3,286046996.6,Y
1596115515.2,286047001.0,P
1596115535.9,286046998.5,N
1596115555.7,286046998.7,N
1596115575.6,286046998.1,N
1596115595.4,286046998.4,N
1596115615.2,286046998.1,N
1596115635.1,286046998.1,N
1596115636.0,286046998.1,N
1596115655.8,286047000.0,N
1596115675.7,286047000.9,N
1596115695.5,286047000.7,N
1596115715.3,286046998.2,N
1596115735.2,286046999.0,N
1596115755.9,286046999.1,N
1596115775.7,286046998.4,N
1596115795.6,286046998.9,N
1596115815.4,286046998.8,N
1596115835.3,286046998.7,N
1596115855.1,286046998.7,N
1596115856.0,286046998.7,N
1596115875.8,286046996.6,Y
1596115895.7,286047000.5,P
1596115915.5,286047002.7,P
1596115935.3,286047002.3,N
1596115955.2,286047001.1,N
1596115975.0,286047000.8,N
1596115975.9,286047000.8,N
1596115995.8,286046998.5,N
1596116015.6,286047000.7,N
1596116035.4,286047000.3,N
1596116055.3,286047000.0,N
1596116075.1,286047000.2,N
1596116095.9,286047000.3,N
1596116115.7,286047002.8,N
1596116135.5,286046999.9,N
1596116155.4,286047000.4,N
1596116175.2,286047000.4,N
1596116195.0,286047000.2,N
1596116195.9,286047000.2,N
1596116215.8,286047000.4,N
1596116235.6,286047001.0,N
1596116255.5,286047000.6,N
1596116275.3,286047000.7,N
1596116295.1,286047000.9,N
1596116315.9,286047001.0,N
1596116335.7,286047000.6,N
1596116355.5,286047001.2,N
1596116375.4,286046999.6,N
1596116395.2,286046999.0,N
1596116415.1,286046999.4,N
1596116416.0,286046999.4,N
1596116435.8,286046999.0,N
1596116455.6,286046999.5,N
1596116475.5,286046999.6,N
1596116495.3,286046997.0,Y
1596116515.1,286046999.6,P
1596116535.9,286046994.9,P
1596116555.7,286046997.9,N
1596116575.6,286046995.0,N
1596116595.4,286046996.2,N
1596116615.2,286046995.2,N
1596116635.1,286046995.2,N
1596116636.0,286046995.2,N
1596116655.8,286046996.4,N
1596116675.6,286046994.6,N
1596116695.5,286046991.8,Y
1596116715.3,286046997.5,P
1596116735.2,286046997.4,P
1596116755.9,286046996.7,P
1596116775.7,286046999.6,N
1596116795.6,286046997.8,N
1596116815.4,286046998.0,N
1596116835.3,286046995.0,Y
1596116855.1,286047001.1,P
1596116856.0,286047001.1,N
1596116875.8,286046998.7,N
1596116895.7,286046998.3,N
1596116915.5,286046998.7,N
1596116935.3,286046998.4,N
1596116955.2,286046999.4,N
1596116975.0,286046996.5,N
1596116975.9,286046996.5,N
1596116995.8,286046998.3,N
1596117015.6,286046999.2,N
1596117035.4,286046999.4,N
1596117055.3,286046997.0,N
1596117075.1,286046996.7,N
1596117095.8,286046997.0,N
1596117115.7,286046997.2,N
1596117135.5,286046997.1,N
1596117155.4,286046998.0,N
1596117175.2,286046998.0,N
1596117195.0,286046995.0,Y
1596117195.9,286046995.0,P
1596117215.8,286046998.9,N
1596117235.6,286046999.8,N
1596117255.4,286047002.6,N
1596117275.3,286047002.8,N
1596117295.1,286047002.8,N
1596117315.9,286046998.3,N
1596117335.7,286046998.4,N
1596117355.5,286046999.6,N
1596117375.4,286046997.0,N
1596117395.2,286046997.1,N
1596117415.0,286046997.4,N
1596117415.9,286046997.4,N
1596117435.8,286046995.6,N
1596117455.6,286046997.3,N
1596117475.5,286046997.6,N
1596117495.3,286046995.0,N
1596117515.1,286046997.8,N
1596117535.9,286046995.3,N
1596117555.7,286046995.1,N
1596117575.5,286046997.9,N
1596117595.4,286046996.2,N
